Pittsburgh, PA

11:17 AM EST on December 10, 2019 (GMT -0500)
Pittsburgh International

Weather History for KPIT - October, 2019

Change the Weather History Date:

Friday, October 25, 2019

  Actual Average Record
Temperature  
Mean Temperature 50 °F 50 °F  
Max Temperature 59 °F 60 °F 82 °F (2012)
Min Temperature 42 °F 40 °F 26 °F (1965)
Degree Days  
Heating Degree Days 14 15  
Month to date heating degree days 239 292  
Since 1 July heating degree days 247 406  
Cooling Degree Days 0 0  
Month to date cooling degree days 37 6  
Year to date cooling degree days 934 734  
Moisture  
Dew Point 44 °F    
Average Humidity 76    
Maximum Humidity 89    
Minimum Humidity 53    
Precipitation  
Precipitation 0.00 in 0.08 in 1.90 in (1872)
Month to date precipitation 3.72 1.80  
Year to date precipitation 43.81 31.62  
Snow  
Snow 0.00 in 0.00 in 1.60 in (1962)
Month to date snowfall 0.0 0.2  
Snow Depth 0.00 in    
Sea Level Pressure  
Sea Level Pressure 30.26 in    
Wind  
Wind Speed 3 mph ()    
Max Wind Speed 8 mph    
Max Gust Speed 12 mph    
Visibility 10.0 miles    
Events      
T = Trace of Precipitation, MM = Missing Value Source: Averaged Metar Reports

Daily Weather History Graph

Daily Weather History Graph

Search for Another Location

Airport or City:

Astronomy

Oct. 25, 2019 Rise Set
Actual Time 7:42 AM EDT 6:26 PM EDT
Civil Twilight 7:14 AM EDT 6:54 PM EDT
Nautical Twilight 6:42 AM EDT 7:26 PM EDT
Astronomical Twilight 6:11 AM EDT 7:58 PM EDT
Moon 4:22 AM EDT (10/25) 5:28 PM EDT (10/25)
Length of Visible Light 11h 40m
Length of Day
10h 44m
Waning Crescent, 9% of the Moon is Illuminated
Oct 25
Waning Crescent
Oct 27
New
Nov 4
First Quarter
Nov 12
Full
Nov 19
Last Quarter

Hourly Weather History & Observations

Time (EDT) Temp. Windchill Dew Point Humidity Pressure Visibility Wind Dir Wind Speed Gust Speed Precip Events Conditions
12:51 AM 50.0 °F - 43.0 °F 77% 30.28 in 10.0 mi North 6.9 mph - N/A   Partly Cloudy
1:51 AM 48.0 °F - 43.0 °F 83% 30.28 in 10.0 mi NNW 4.6 mph - N/A   Partly Cloudy
2:51 AM 46.9 °F - 43.0 °F 86% 30.28 in 10.0 mi Calm Calm - N/A   Partly Cloudy
3:51 AM 45.0 °F 42.6 °F 41.0 °F 86% 30.28 in 10.0 mi NNW 4.6 mph - N/A   Mostly Cloudy
4:51 AM 46.0 °F - 43.0 °F 89% 30.27 in 10.0 mi Calm Calm - N/A   Scattered Clouds
5:51 AM 43.0 °F - 39.9 °F 89% 30.28 in 10.0 mi Calm Calm - N/A   Mostly Cloudy
6:51 AM 46.9 °F - 43.0 °F 86% 30.30 in 10.0 mi North 4.6 mph - N/A   Overcast
7:51 AM 46.9 °F - 43.0 °F 86% 30.31 in 10.0 mi North 3.5 mph - N/A   Overcast
8:51 AM 46.9 °F - 43.0 °F 86% 30.30 in 10.0 mi Calm Calm - N/A   Overcast
9:51 AM 48.0 °F - 44.1 °F 86% 30.32 in 10.0 mi Calm Calm - N/A   Overcast
11:51 AM 52.0 °F - 45.0 °F 77% 30.29 in 10.0 mi SSE 4.6 mph - N/A   Overcast
12:51 PM 54.0 °F - 44.1 °F 69% 30.27 in 10.0 mi SSW 4.6 mph - N/A   Overcast
1:51 PM 55.9 °F - 44.1 °F 64% 30.24 in 10.0 mi Calm Calm - N/A   Overcast
2:51 PM 57.9 °F - 45.0 °F 62% 30.23 in 10.0 mi SSE 4.6 mph - N/A   Overcast
3:51 PM 59.0 °F - 42.1 °F 53% 30.22 in 10.0 mi SW 5.8 mph - N/A   Overcast
4:51 PM 57.9 °F - 42.1 °F 56% 30.22 in 10.0 mi SW 4.6 mph - N/A   Overcast
5:51 PM 57.0 °F - 43.0 °F 59% 30.22 in 10.0 mi WSW 3.5 mph - N/A   Overcast
6:51 PM 55.0 °F - 44.1 °F 67% 30.22 in 10.0 mi Calm Calm - N/A   Overcast
7:51 PM 54.0 °F - 45.0 °F 72% 30.24 in 10.0 mi West 3.5 mph - N/A   Overcast
8:51 PM 53.1 °F - 45.0 °F 74% 30.25 in 10.0 mi Calm Calm - N/A   Overcast
9:51 PM 51.1 °F - 45.0 °F 80% 30.26 in 10.0 mi WNW 5.8 mph - N/A   Overcast
10:51 PM 52.0 °F - 46.0 °F 80% 30.25 in 10.0 mi Calm Calm - N/A   Overcast
11:51 PM 51.1 °F - 46.0 °F 83% 30.24 in 10.0 mi North 3.5 mph - N/A   Overcast